Location: Montclair
(37.8322°N, 122.2092°W)
Time: 12:02:34
(UTC+00:00)

Meteor 2-13 Rocket - Pass Details

Date: 08 September 2024
Orbit: 935 x 958 km, 82.5° (Epoch: 11 October)

Event Time Altitude Azimuth Distance (km) Brightness Sun altitude
Rises 13:10:27 0° 190° (S) 3,622 7.2 -7.6°
Reaches altitude 10° 13:12:56 10° 192° (SSW) 2,679 6.6 -7.1°
Maximum altitude 13:19:04 75° 278° (W) 990 4.5 -5.9°
Drops below altitude 10° 13:25:13 10° 4° (N) 2,683 7.0 -4.8°
Sets 13:27:43 0° 6° (N) 3,629 7.7 -4.3°
